Location: Koivula
(61.3000°N, 22.9000°E)
Time: 12:25:15
(UTC+00:00)

Daily predictions for brighter satellites

Satellite Brightness Start Highest point End
(mag) Time Altitude Azimuth Time Altitude Azimuth Time Altitude Azimuth
Radarsat Rocket 4.4 14:35:56 10° SSE 14:43:09 89° WSW 14:49:33 10° NNW
YAOGAN 1 3.9 14:44:15 10° E 14:47:28 21° NE 14:50:41 10° N
Cosmos 2233 Rocket 4.2 14:41:25 10° N 14:47:37 50° ENE 14:53:45 10° SE
ATLAS 5 CENTAUR R/B 2.3 14:43:07 10° WNW 14:48:20 81° SSW 14:54:27 10° ESE
Cosmos 1726 3.9 14:45:53 10° SW 14:49:08 29° WNW 14:52:26 10° N
CZ-4C R/B 3.5 14:46:20 10° NNE 14:49:53 63° WNW 14:53:19 10° SSW
Okean-O 3.1 14:46:00 10° SE 14:50:06 38° ENE 14:54:14 10° N
Cosmos 1763 Rocket 3.5 14:45:21 10° SSW 14:50:36 90° ESE 14:55:47 10° NE
Cosmos 1892 3.1 14:47:30 10° NNW 14:51:16 67° W 14:55:02 10° S
Cosmos 468 Rocket 4.1 14:46:28 10° SW 14:51:41 78° NW 14:56:52 10° NNE
Cosmos 841 Rocket 3.6 14:46:37 10° SSW 14:51:52 67° ESE 14:57:07 10° NE
SeaSat 1 2.4 14:47:41 10° SE 14:52:38 80° NE 14:57:36 10° NW
Cosmos 2221 3.9 14:49:37 10° SE 14:52:41 19° E 14:55:46 10° NE
FENGYUN 3A 4.1 14:50:53 10° S 14:56:18 70° WSW 15:01:47 10° NNW
Cosmos 44 3.4 14:53:47 10° W 14:58:21 59° NNW 15:02:44 10° ENE
USA 238 DEB 3.8 14:52:00 10° W 14:58:55 79° NNW 15:06:07 10° ENE
USA 238 3.8 14:52:07 10° W 14:59:01 79° N 15:06:13 10° ENE
Cosmos 1570 Rocket 4.1 14:53:46 10° SSW 14:59:09 88° NW 15:04:33 10° NE
Cosmos 2278 Rocket 3.1 14:54:57 10° W 15:00:21 42° NNW 15:05:45 10° NE
CENTAUR R/B 2.9 14:53:59 10° WSW 15:00:38 87° SSE 15:08:28 10° ENE
Cosmos 1408 2.6 14:59:06 10° NNW 15:02:46 88° WSW 15:06:23 10° SSE
H-2A R/B 3.1 14:58:40 10° N 15:02:51 44° WNW 15:06:56 10° SW
SL-08 R/B 4.0 14:58:28 10° NNE 15:03:18 60° WNW 15:08:10 10° SW
Cosmos-2242 3.0 14:59:35 10° S 15:03:49 64° E 15:08:03 10° NNE
ASTEX 1 3.7 14:58:58 10° NNE 15:03:51 48° E 15:08:42 10° SSE
Cosmos 724 4.3 14:58:51 10° WNW 15:04:49 69° NNE 15:10:39 10° ESE
Cosmos 1300 3.2 15:01:29 10° SSW 15:05:16 64° WNW 15:09:06 10° N
NOSS 3-2 (A) 3.8 15:00:30 10° W 15:06:54 79° NNW 15:14:17 10° ENE
Cosmos 1743 Rocket 3.5 15:03:38 10° N 15:07:58 63° ENE 15:12:18 10° SSE
Cosmos 1805 Rocket 4.1 15:04:18 10° N 15:08:21 36° ENE 15:12:22 10° SE
AQUARIUS 4.2 15:05:26 10° SSE 15:09:53 64° ENE 15:14:22 10° NNW
Cosmos 1844 Rocket 3.8 15:07:19 10° WNW 15:12:18 31° N 15:17:01 11° ENE
H-2A R/B 3.7 15:09:56 10° ENE 15:13:02 16° NE 15:16:13 10° N
Cosmos 1656 Rocket 4.0 15:08:10 10° S 15:13:25 47° ESE 15:18:37 10° NE
Ariane Rocket 4.1 15:10:04 10° E 15:14:05 24° NE 15:18:06 10° N
Cosmos 1727 Rocket 4.2 15:09:24 10° SSW 15:15:38 78° WNW 15:21:58 10° NNE
Cosmos 44 Rocket 3.3 15:11:31 10° WSW 15:16:23 80° NNW 15:20:45 13° ENE
ATLAS 3B R/B 2.7 15:09:51 10° WSW 15:16:33 88° NNW 15:22:47 12° ENE
SL-16 R/B 3.6 15:11:53 10° NNE 15:17:39 41° NW 15:23:22 10° WSW
Landsat 5 4.1 15:14:08 10° NNE 15:18:01 52° WNW 15:21:48 10° SW
Cosmos 1725 Rocket 4.1 15:11:55 10° NNW 15:18:17 89° W 15:24:39 10° S
Cosmos 2123 Rocket 4.1 15:13:27 10° SSE 15:19:27 53° E 15:25:27 10° NNE
Cosmos 2344 4.3 15:13:44 10° S 15:20:31 38° ESE 15:27:45 12° ENE
Cosmos 1825 2.3 15:16:53 10° NNW 15:20:41 78° WSW 15:24:28 10° S
NOAA 12 4.1 15:16:22 10° SE 15:21:38 63° ENE 15:26:55 10° NNW
Okean O Rocket 2.9 15:17:51 10° S 15:22:06 46° W 15:26:20 10° NNW
Cosmos 1340 Rocket 3.1 15:18:31 10° S 15:22:25 49° E 15:26:23 10° NNE
Cosmos 2056 Rocket 4.2 15:17:57 10° NNW 15:22:39 34° NE 15:27:20 10° E
ALOS 3.6 15:18:26 10° S 15:22:56 45° W 15:27:27 10° NNW
Cosmos 2219 3.4 15:17:19 10° NW 15:22:58 77° SW 15:28:36 10° SSE
Cosmos 2016 Rocket 4.4 15:17:03 10° NNW 15:23:26 74° W 15:29:47 10° S
Cosmos 540 Rocket 3.5 15:19:46 10° SSW 15:24:57 88° ESE 15:30:10 10° NE
CZ-4 R/B 1.9 15:23:58 10° SE 15:27:47 37° ENE 15:31:33 10° N
Cosmos 2263 4.2 15:22:18 10° SSW 15:27:56 75° SE 15:33:36 10° NE
Cosmos 1408 Rocket 4.3 15:24:08 10° NNW 15:28:29 59° W 15:32:50 10° S
Cosmos 1238 Rocket 3.2 15:24:45 10° NNW 15:30:03 75° ENE 15:34:21 10° SSE
Cosmos 2297 4.4 15:25:47 10° WSW 15:31:23 51° NNW 15:36:54 11° NE
SMAP 3.1 15:27:03 10° SSE 15:31:44 86° WSW 15:36:27 10° NNW
Cosmos 1500 Rocket 3.5 15:28:57 10° NNW 15:33:25 89° E 15:37:47 10° SSE
Cosmos 2369 Rocket 2.2 15:29:25 10° SW 15:35:04 85° NW 15:40:31 11° NE
CZ-2D R/B 4.3 15:34:14 10° ESE 15:37:29 26° ENE 15:40:45 10° N
EP 1 4.2 15:35:33 10° WSW 15:38:08 86° SSE 15:39:41 23° ENE
Cosmos 1633 Rocket 3.7 15:35:18 10° N 15:39:20 34° ENE 15:43:23 10° SE
EP 3 3.9 15:38:24 10° SW 15:40:32 65° SSE 15:41:36 28° ENE
Cosmos 1689 Rocket 2.6 15:38:59 10° NNE 15:42:00 62° WNW 15:45:01 10° SSW
Cosmos 1633 3.0 15:41:07 10° N 15:44:34 37° ENE 15:48:00 10° SE
COSMO-SKYMED 1 3.7 15:42:57 15° NE 15:45:13 22° E 15:48:38 10° SE
Cosmos 2227 Rocket 2.3 15:39:51 10° NW 15:45:34 81° SW 15:51:14 10° SE
COBE Rocket 4.3 15:41:00 10° NNE 15:45:36 38° E 15:50:03 10° SSE
Cosmos 1939 Rocket 3.8 15:42:04 10° ESE 15:45:40 29° ENE 15:49:17 10° N
Cosmos 2297 Rocket 2.4 15:40:22 10° NW 15:46:03 77° SW 15:51:42 10° SSE
Meteor 1-28 Rocket 4.2 15:44:23 10° N 15:47:57 45° WNW 15:51:30 10° SW
NOSS 3-2 (C) 3.8 15:42:02 10° W 15:48:30 77° N 15:54:19 18° ENE
Cosmos 1666 Rocket 3.8 15:44:46 10° N 15:49:02 44° ENE 15:53:15 10° SE
FengYun 1-2 T 4.2 15:44:09 10° SE 15:49:38 68° ENE 15:55:06 10° NNW
CSL-04 Rocket 3.7 15:44:29 10° SE 15:49:42 55° ENE 15:54:53 10° NNW
Sich 1 3.0 15:51:23 10° N 15:55:41 60° ENE 15:59:59 10° SSE
Cosmos 1455 2.3 15:53:13 10° SSW 15:57:00 73° WNW 16:00:47 10° NNE
USA 215 3.8 15:50:40 10° ESE 15:57:06 56° SSW 16:03:33 10° W
Cosmos 220 Rocket 4.0 15:55:33 10° SW 15:59:49 83° NW 16:03:29 14° NNE
CZ-4B R/B 3.1 15:56:56 10° N 15:59:53 31° WNW 16:02:53 10° SW
Aureole 2 Rocket 2.4 15:56:29 10° SSW 15:59:57 88° NW 16:02:27 19° NNE
Cosmos 2034 Rocket 4.1 15:56:55 10° N 16:03:07 53° ENE 16:09:21 10° SE
YAOGAN 6 2.4 16:05:14 10° SSE 16:08:43 72° ENE 16:12:14 10° NNW
Envisat 3.1 16:04:30 10° SSE 16:09:36 82° WSW 16:14:45 10° NNW
Cosmos 1452 Rocket 4.2 16:06:52 10° NNW 16:11:44 35° NE 16:13:51 26° ENE
Cosmos 2082 3.8 16:06:10 10° NW 16:11:50 80° SW 16:17:27 10° SSE
PSLV R/B 4.0 16:07:54 10° NNE 16:12:09 82° WNW 16:16:24 10° SSW
Cosmos 1862 3.3 16:08:15 10° N 16:12:11 56° ENE 16:16:07 10° SSE
H-2A R/B 3.9 16:08:32 10° S 16:12:16 46° W 16:15:59 10° NNW
Cosmos 2263 Rocket 2.5 16:07:09 10° NW 16:12:36 48° NNE 16:15:36 25° E
Cosmos 1371 Rocket 4.0 16:07:46 10° NNW 16:12:59 60° NE 16:17:04 16° SE
Meteor 1-27 4.2 16:07:29 10° S 16:13:06 65° E 16:18:49 10° NNE
Cosmos 1943 Rocket 2.7 16:08:27 10° WSW 16:14:02 57° NW 16:18:36 16° NE
Meteor 2-10 Rocket 3.5 16:10:58 10° SSW 16:15:59 84° WNW 16:21:09 10° NNE
IRS-1A Rocket 4.5 16:12:32 10° SE 16:17:58 50° ENE 16:23:32 10° NNW
Cosmos 1470 Rocket 3.9 16:15:25 10° N 16:19:44 44° ENE 16:22:22 21° SE
Meteor 2-11 Rocket 4.4 16:15:01 10° NNW 16:21:06 63° ENE 16:27:11 10° SSE
YAOGAN 1 2.4 16:18:41 10° SSE 16:23:02 78° ENE 16:27:23 10° NNW
Cosmos 1634 Rocket 4.3 16:20:28 10° N 16:26:22 41° ENE 16:29:51 22° ESE
Okean-O 3.6 16:22:14 10° S 16:26:33 49° W 16:30:53 10° NNW
Cosmos 2221 2.5 16:25:22 10° SSW 16:29:42 87° WNW 16:34:06 10° NNE
TSX-5 4.4 16:25:57 10° SSW 16:30:13 57° SE 16:32:41 30° ENE
Geosat 4.2 16:27:57 28° ENE 16:30:18 49° ESE 16:35:11 10° SSW
SeaSat 1 4.3 16:26:13 10° S 16:30:36 32° WSW 16:35:02 10° NW
CZ-3B R/B 4.4 16:30:01 10° SSW 16:31:52 21° SSE 16:31:52 21° SSE
Cosmos 1697 Rocket 4.4 16:28:37 10° SSE 16:30:18 16° SE 16:30:18 16° SE
ATLAS 5 CENTAUR R/B 3.7 16:27:44 10° WNW 16:32:43 36° SW 16:38:22 10° SSE
SKYMED 2 3.7 16:31:38 26° NE 16:33:46 48° E 16:37:59 10° S
Cosmos 1842 Rocket 4.0 16:29:28 10° SSW 16:33:56 66° WNW 16:38:25 10° NNE
Cosmos 2227 4.2 16:31:32 10° NW 16:37:20 68° NE 16:40:22 29° ESE
Cosmos 1356 Rocket 3.5 16:34:39 10° S 16:38:42 50° E 16:39:35 42° ENE
Cosmos 44 3.3 16:35:35 10° WNW 16:40:03 56° N 16:41:11 42° ENE
SJ-6B 4.4 16:42:50 21° NNE 16:42:50 21° NNE 16:44:39 10° N
Cosmos 1900 4.4 16:36:59 10° WSW 16:42:00 74° NNW 16:44:11 34° NE
Resurs 01 Rocket 3.3 16:46:40 19° NNE 16:46:40 19° NNE 16:48:42 10° N
Cosmos 2278 Rocket 3.4 16:40:42 10° WNW 16:45:46 31° N 16:48:03 24° NE
SPOT 3 Rocket 4.0 16:45:00 38° ENE 16:45:48 40° NE 16:50:41 10° NNW
Cosmos 1447 Rocket 4.5 16:39:47 10° SSW 16:46:04 88° WNW 16:52:27 10° NNE
Meteor 1-20 Rocket 4.5 16:41:06 10° NNW 16:46:50 51° ENE 16:49:09 33° ESE
CZ-2C R/B 3.9 16:47:38 31° NE 16:47:38 31° NE 16:51:53 10° N
USA 238 DEB 3.7 16:43:18 10° WNW 16:50:19 81° NNE 16:53:46 34° E
USA 238 3.7 16:43:25 10° WNW 16:50:25 80° NNE 16:53:52 34° E
Cosmos 1867 3.8 16:45:29 10° SSW 16:50:47 52° SE 16:52:08 42° E
H-2A R/B 2.5 16:50:34 40° E 16:51:20 42° ENE 16:56:21 10° NNW
CENTAUR R/B 2.9 16:44:44 10° W 16:51:45 76° N 16:55:42 33° E
Ariane Rocket 2.9 16:48:10 15° SSE 16:52:26 76° ENE 16:57:34 10° NNW
Cosmos 2279 Rocket 4.4 16:46:42 10° N 16:52:32 40° ENE 16:53:38 37° E
Cosmos 1464 Rocket 4.2 16:47:15 10° NNW 16:53:27 73° W 16:59:34 10° S
GEOS 3 Rocket 3.7 16:53:11 42° E 16:54:39 57° SE 16:59:49 10° SW
Cosmos 1656 Rocket 4.0 16:51:32 10° WSW 16:56:58 60° NW 17:00:08 25° NNE
Cosmos 1844 Rocket 3.3 16:52:17 10° NW 16:57:32 39° NNE 16:58:40 35° NE
NOSS 3-2 (A) 3.8 16:51:31 10° WNW 16:58:16 81° NNE 17:01:40 37° E
Cosmos 44 Rocket 3.6 16:53:36 10° W 16:58:20 54° N 16:59:27 43° NE
ARGOS 3.4 16:59:36 44° ENE 17:00:06 45° ENE 17:05:14 10° NNW
CZ-4 R/B 2.6 16:58:48 10° S 17:02:48 44° W 17:06:44 10° NNW
NOAA 11 4.2 16:57:39 10° SSE 17:03:06 79° WSW 17:08:35 10° NNW
MOS 1 4.2 17:00:30 28° SE 17:03:34 71° ENE 17:09:13 10° NNW
Cosmos 2056 Rocket 3.4 17:00:11 10° NW 17:05:20 84° WSW 17:07:44 33° SSE
Cosmos 773 Rocket 3.8 17:00:19 10° SSW 17:05:29 74° ESE 17:07:16 42° NE
Cosmos 1624 Rocket 4.0 17:00:07 10° NW 17:05:30 82° WSW 17:08:21 29° SSE
ATLAS 3B R/B 2.7 17:00:57 10° W 17:07:36 72° N 17:10:02 42° ENE
Cosmos 1869 3.4 17:04:05 10° SSW 17:08:01 74° WNW 17:09:34 36° N
Cosmos 1844 4.4 17:02:48 10° NW 17:08:17 40° NNE 17:09:19 37° NE
Meteor 2-20 Rocket 4.3 17:02:51 10° S 17:09:00 86° ESE 17:15:13 10° NNE
Timation 1 Rocket 4.2 17:03:52 10° NW 17:09:54 79° NE 17:11:48 46° ESE
Cosmos 1656 3.9 17:06:15 10° S 17:11:00 45° SE 17:11:00 45° SE
CZ-2D R/B 3.6 17:09:21 24° S 17:11:36 64° WSW 17:15:30 10° NNW
Cosmos 1633 Rocket 3.9 17:13:04 10° NNW 17:17:20 50° W 17:21:36 10° S
Cosmos 1538 Rocket 3.9 17:13:54 10° SSW 17:19:11 74° ESE 17:20:14 57° NE
Cosmos 1633 4.3 17:16:05 10° NNW 17:19:24 33° W 17:22:41 10° SSW
Cosmos 2369 Rocket 3.2 17:14:30 10° W 17:19:45 39° NNW 17:22:18 26° NNE
Cosmos 1939 Rocket 3.4 17:17:44 21° S 17:20:25 59° WSW 17:24:32 10° NNW
COSMO-SKYMED 1 2.6 17:20:12 37° N 17:21:54 78° WNW 17:26:15 10° SSW
Cosmos 1933 Rocket 3.5 17:23:47 10° NNW 17:28:09 78° WSW 17:28:16 77° SW
Cosmos 2227 Rocket 4.4 17:24:26 10° NW 17:28:56 25° WSW 17:33:25 10° SSW
Cosmos 2297 Rocket 4.5 17:25:01 10° NW 17:29:22 23° WSW 17:33:41 10° SSW
Cosmos 2344 3.7 17:26:18 10° WSW 17:33:58 84° SSE 17:37:45 40° ENE
NOSS 3-2 (C) 3.7 17:33:06 10° WNW 17:39:54 84° NNE 17:41:45 56° E
USA 215 4.5 17:37:19 20° SSE 17:41:03 34° SW 17:46:56 10° W
Terra 4.1 17:44:02 13° N 17:44:02 13° N 17:45:02 10° N
SJ-11-01 4.4 17:48:43 70° W 17:48:43 70° W 17:53:22 10° NNW
Cosmos 1420 Rocket 4.0 17:48:00 10° NW 17:53:13 74° WSW 17:53:13 74° WSW
Cosmos 1452 Rocket 3.5 17:49:06 10° NW 17:54:11 80° WNW 17:54:11 80° WNW
USA 229 DEB 3.7 17:48:10 10° SW 17:54:27 60° SSE 17:54:27 60° SSE
USA 229 3.7 17:48:18 10° SW 17:54:30 59° SSE 17:54:30 59° SSE
Cosmos 2263 Rocket 2.3 17:51:17 10° NW 17:56:50 67° SW 17:57:19 64° SSW
Cosmos 1943 Rocket 3.4 17:53:44 10° WNW 17:58:51 33° N 18:00:07 30° NNE
NOSS 3-1 (C) 3.8 17:55:29 10° SW 17:59:56 49° S 17:59:56 49° S
Cosmos 2346 Rocket 4.4 17:57:04 10° SSW 18:03:20 82° WNW 18:09:33 10° NNE
Geosat 4.4 18:08:08 57° NNW 18:08:20 58° NW 18:13:16 10° WSW
Cosmos 1634 Rocket 4.3 18:06:00 10° NNW 18:12:08 63° W 18:14:34 37° SSW
Cosmos 1697 Rocket 4.4 18:10:10 10° SSW 18:12:06 22° SSW 18:12:06 22° SSW
Tsikada Rocket 4.1 18:11:26 10° SSW 18:17:50 78° WNW 18:24:19 10° NNE
Resurs 01 Rocket 3.7 18:24:14 21° NNW 18:24:14 21° NNW 18:25:45 10° NNW
SPOT 3 Rocket 4.2 18:25:39 55° WNW 18:25:39 55° WNW 18:30:19 10° NNW
CZ-2C R/B 3.9 18:28:43 44° NNW 18:28:43 44° NNW 18:32:10 10° NNW
H-2A R/B 2.7 18:31:12 54° W 18:31:12 54° W 18:36:00 10° NNW
Cosmos 2278 Rocket 3.2 18:25:43 10° NW 18:29:53 38° N 18:29:53 38° N
GEOS 3 Rocket 4.4 18:34:17 49° W 18:34:17 49° W 18:38:07 10° WSW
Cosmos 1867 4.4 18:28:51 10° WSW 18:32:48 48° W 18:32:48 48° W
ADEOS Rocket 4.4 18:27:50 10° NNE 18:31:04 29° NNE 18:31:04 29° NNE
Cosmos 2279 Rocket 4.2 18:32:06 10° NNW 18:38:13 64° W 18:38:13 64° W
ARGOS 3.9 18:41:06 49° WNW 18:41:06 49° WNW 18:45:42 10° NNW
USA 238 DEB 4.0 18:34:21 10° WNW 18:41:12 63° SW 18:41:12 63° SW
USA 238 4.0 18:34:27 10° WNW 18:41:18 63° SW 18:41:18 63° SW
Cosmos 1844 Rocket 3.5 18:36:28 10° NW 18:40:20 46° NW 18:40:20 46° NW
CENTAUR R/B 2.9 18:35:30 10° WNW 18:42:52 85° SSW 18:42:52 85° SSW
NOSS 3-2 (A) 4.0 18:42:19 10° WNW 18:49:04 64° SW 18:49:04 64° SW
ATLAS 3B R/B 3.0 18:51:56 10° WNW 18:57:16 60° WNW 18:57:16 60° WNW
Cosmos 2369 Rocket 3.8 19:00:09 10° WNW 19:04:05 29° NNW 19:04:05 29° NNW
Cosmos 2263 Rocket 4.4 19:36:00 10° WNW 19:39:01 19° W 19:39:01 19° W
Cosmos 1943 Rocket 4.1 19:38:50 10° NW 19:41:37 25° NNW 19:41:37 25° NNW
Cosmos 2344 4.0 19:40:44 10° W 19:47:44 70° NW 19:47:44 70° NW
Cosmos 2278 Rocket 4.5 20:10:01 10° NW 20:11:43 20° NW 20:11:43 20° NW
CENTAUR R/B 4.3 20:26:08 10° WNW 20:30:03 31° W 20:30:03 31° W
